New River MCAS, NC

2:13 AM EDT on July 27, 2017 (GMT -0400)
New River Marine Corps Air Station

Weather History for KNCA - December, 2012

Change the Weather History Date:

Saturday, December 29, 2012

  Actual Average Record
Temperature  
Mean Temperature 47 °F -  
Max Temperature 52 °F 53 °F 80 °F (2015)
Min Temperature 42 °F 32 °F 24 °F (2010)
Degree Days  
Heating Degree Days 18    
Moisture  
Dew Point 40 °F    
Average Humidity 79    
Maximum Humidity 90    
Minimum Humidity 60    
Precipitation  
Precipitation 0.96 in - - ()
Sea Level Pressure  
Sea Level Pressure 29.77 in    
Wind  
Wind Speed 8 mph (NW)    
Max Wind Speed 24 mph    
Max Gust Speed 33 mph    
Visibility 8 miles    
Events Rain    
Averages and records for this station are not official NWS values.
T = Trace of Precipitation, MM = Missing Value Source: NWS Daily Summary

Daily Weather History Graph

Daily Weather History Graph

Search for Another Location

Airport or City:

Trip Planner

Search our weather history database for the weather conditions in past years. The results will help you decide how hot, cold, wet, or windy it might be!

Date:

Astronomy

Dec. 29, 2012 Rise Set
Actual Time 7:16 AM EST 5:07 PM EST
Civil Twilight 6:48 AM EST 5:35 PM EST
Nautical Twilight 6:16 AM EST 6:07 PM EST
Astronomical Twilight 5:46 AM EST 6:38 PM EST
Moon 6:34 PM EST (12/29) 7:52 AM EST (12/29)
Length of Visible Light 10h 47m
Length of Day
9h 51m
Full, 98% of the Moon is Illuminated
Dec 29
Full
Jan 4
Last Quarter
Jan 11
New
Jan 18
First Quarter
Jan 26
Full

Hourly Weather History & Observations

Time (EST) Temp. Windchill Dew Point Humidity Pressure Visibility Wind Dir Wind Speed Gust Speed Precip Events Conditions
12:56 AM 45.0 °F 42.6 °F 34.0 °F 65% 30.01 in 10.0 mi NE 4.6 mph - N/A   Overcast
1:56 AM 45.0 °F 41.8 °F 32.0 °F 60% 29.95 in 10.0 mi East 5.8 mph - N/A   Overcast
2:56 AM 46.0 °F 43.1 °F 33.1 °F 61% 29.92 in 10.0 mi NE 5.8 mph - N/A   Overcast
3:56 AM 45.0 °F 41.8 °F 36.0 °F 71% 29.88 in 10.0 mi NE 5.8 mph - 0.00 in Rain Light Rain
4:56 AM 45.0 °F 41.8 °F 37.9 °F 76% 29.83 in 10.0 mi NE 5.8 mph - 0.02 in Rain Light Rain
5:09 AM 44.6 °F 40.7 °F 39.2 °F 81% 29.83 in 10.0 mi NNW 6.9 mph - 0.00 in Rain Light Rain
5:40 AM 44.6 °F 39.7 °F 39.2 °F 81% 29.80 in 5.0 mi North 9.2 mph - 0.03 in Rain Rain
5:56 AM 44.1 °F 37.7 °F 39.9 °F 85% 29.83 in 3.0 mi NNW 12.7 mph - 0.08 in Rain Rain
6:38 AM 42.8 °F 37.0 °F 39.2 °F 87% 29.76 in 4.0 mi NNE 10.4 mph - 0.16 in Rain Rain
6:56 AM 43.0 °F 38.2 °F 39.9 °F 89% 29.78 in 2.5 mi North 8.1 mph - 0.27 in Rain Heavy Rain
7:38 AM 42.8 °F 37.5 °F 39.2 °F 87% 29.76 in 2.5 mi NNW 9.2 mph - 0.36 in Rain Heavy Rain
7:47 AM 42.8 °F 38.0 °F 39.2 °F 87% 29.73 in 5.0 mi NNE 8.1 mph - 0.38 in Rain Light Rain
7:56 AM 43.0 °F 38.2 °F 39.9 °F 89% 29.73 in 4.0 mi NNE 8.1 mph - 0.41 in Rain Rain
8:13 AM 44.6 °F 40.2 °F 39.2 °F 81% 29.70 in 3.0 mi NE 8.1 mph - 0.06 in Rain Light Rain
8:40 AM 44.6 °F 42.2 °F 41.0 °F 87% 29.69 in 1.8 mi North 4.6 mph - 0.12 in Rain Heavy Rain
8:56 AM 44.1 °F - 41.0 °F 89% 29.69 in 1.5 mi Calm Calm - 0.17 in Rain Heavy Rain
9:05 AM 44.6 °F 43.1 °F 41.0 °F 87% 29.68 in 4.0 mi NNE 3.5 mph - 0.00 in Rain Light Rain
9:56 AM 45.0 °F 41.2 °F 42.1 °F 90% 29.68 in 10.0 mi NW 6.9 mph - 0.01 in   Overcast
10:56 AM 46.9 °F - 44.1 °F 90% 29.67 in 10.0 mi West 6.9 mph - N/A   Overcast
11:56 AM 48.9 °F - 45.0 °F 86% 29.68 in 10.0 mi WNW 16.1 mph 19.6 mph N/A   Overcast
12:56 PM 48.9 °F - 45.0 °F 86% 29.66 in 7.0 mi West 8.1 mph - 0.00 in   Overcast
1:38 PM 51.8 °F - 46.4 °F 82% 29.64 in 10.0 mi WNW 12.7 mph - N/A   Overcast
1:56 PM 52.0 °F - 46.0 °F 80% 29.66 in 10.0 mi WNW 17.3 mph 24.2 mph N/A   Overcast
2:30 PM 51.8 °F - 44.6 °F 76% 29.67 in 10.0 mi WNW 24.2 mph 33.4 mph N/A   Overcast
2:56 PM 50.0 °F - 43.0 °F 77% 29.70 in 10.0 mi WNW 18.4 mph 31.1 mph N/A   Overcast
3:14 PM 50.0 °F - 42.8 °F 76% 29.69 in 10.0 mi West 16.1 mph 20.7 mph N/A   Overcast
3:56 PM 50.0 °F - 43.0 °F 77% 29.72 in 10.0 mi WNW 11.5 mph - N/A   Overcast
4:56 PM 48.9 °F - 42.1 °F 77% 29.74 in 10.0 mi West 10.4 mph - N/A   Scattered Clouds
5:04 PM 50.0 °F - 42.8 °F 76% 29.73 in 10.0 mi West 9.2 mph - N/A   Mostly Cloudy
5:17 PM 48.2 °F - 42.8 °F 82% 29.74 in 10.0 mi West 12.7 mph - N/A   Scattered Clouds
5:56 PM 48.0 °F - 39.9 °F 74% 29.77 in 10.0 mi West 9.2 mph - N/A   Clear
7:56 PM 46.9 °F - 39.0 °F 74% 29.82 in 10.0 mi West 9.2 mph - N/A   Mostly Cloudy
8:56 PM 48.0 °F - 39.0 °F 71% 29.84 in 10.0 mi West 11.5 mph - N/A   Mostly Cloudy
9:56 PM 46.0 °F 41.0 °F 37.9 °F 73% 29.87 in 10.0 mi WNW 10.4 mph - N/A   Clear
10:56 PM 45.0 °F 39.7 °F 35.1 °F 68% 29.90 in 10.0 mi WNW 10.4 mph - N/A   Clear
11:56 PM 44.1 °F 37.7 °F 32.0 °F 63% 29.93 in 10.0 mi WNW 12.7 mph - N/A   Mostly Cloudy